DAL2757 KIND-KMSP

Flight info

Callsign DAL2757
Flight time 1h 25m
Altitude 32000
Route MEARZ7 BVT J89 OBK KAMMA KKILR4
Aircraft B739/M-SDE2E3FGHIRWXY/LB1

Departure

Time 2026-05-05 22:50
Airport Indianapolis International Airport (KIND)

Arrival

Time 2026-05-06 00:16
Airport Minneapolis–Saint Paul International Airport / Wold–Chamberlain Field (KMSP)
Time Latitude Longitude Altitude Speed Heading
2026-05-05 22:30 39.71692 -86.29706 786 ft 0 kts 303°
2026-05-05 22:39 39.71686 -86.29693 786 ft 3 kts 308°
2026-05-05 22:39 39.71673 -86.29675 786 ft 3 kts 326°
2026-05-05 22:40 39.71656 -86.29664 785 ft 3 kts 355°
2026-05-05 22:40 39.71639 -86.29666 785 ft 2 kts 38°
2026-05-05 22:40 39.71633 -86.29673 785 ft 1 kts 44°
2026-05-05 22:40 39.71632 -86.29674 785 ft 0 kts 44°
2026-05-05 22:43 39.71634 -86.29672 785 ft 4 kts 44°
2026-05-05 22:43 39.71684 -86.29609 786 ft 10 kts 44°
2026-05-05 22:43 39.71735 -86.29544 785 ft 14 kts 39°
2026-05-05 22:44 39.71809 -86.29471 786 ft 10 kts 38°
2026-05-05 22:44 39.71881 -86.29461 786 ft 11 kts 326°
2026-05-05 22:44 39.71942 -86.29551 786 ft 15 kts 310°
2026-05-05 22:44 39.72008 -86.29656 785 ft 15 kts 306°
2026-05-05 22:45 39.71980 -86.29773 783 ft 18 kts 219°
2026-05-05 22:45 39.71887 -86.29872 784 ft 16 kts 219°
2026-05-05 22:45 39.71882 -86.29983 781 ft 15 kts 312°
2026-05-05 22:45 39.71948 -86.30083 779 ft 12 kts 285°
2026-05-05 22:46 39.71919 -86.30158 777 ft 12 kts 223°
2026-05-05 22:46 39.71845 -86.30248 776 ft 17 kts 223°
2026-05-05 22:46 39.71748 -86.30369 775 ft 19 kts 224°
2026-05-05 22:46 39.71645 -86.30500 776 ft 21 kts 224°
2026-05-05 22:47 39.71538 -86.30637 778 ft 23 kts 225°
2026-05-05 22:47 39.71424 -86.30782 780 ft 24 kts 224°
2026-05-05 22:47 39.71294 -86.30949 778 ft 29 kts 225°
2026-05-05 22:47 39.71137 -86.31147 774 ft 36 kts 224°
2026-05-05 22:48 39.70963 -86.31370 774 ft 38 kts 224°
2026-05-05 22:48 39.70801 -86.31575 778 ft 31 kts 224°
2026-05-05 22:48 39.70669 -86.31741 779 ft 17 kts 224°
2026-05-05 22:48 39.70605 -86.31833 778 ft 13 kts 250°
2026-05-05 22:49 39.70651 -86.31931 779 ft 13 kts 313°
2026-05-05 22:49 39.70702 -86.31984 779 ft 9 kts
2026-05-05 22:49 39.70753 -86.31935 780 ft 13 kts 44°
2026-05-05 22:49 39.70957 -86.31676 779 ft 75 kts 44°
2026-05-05 22:50 39.71478 -86.31012 780 ft 132 kts 45°
2026-05-05 22:50 39.72248 -86.30046 824 ft 171 kts 44°
2026-05-05 22:50 39.73086 -86.28974 1537 ft 166 kts 43°
2026-05-05 22:50 39.73890 -86.27875 2248 ft 170 kts 43°
2026-05-05 22:51 39.74707 -86.26708 2646 ft 185 kts 43°
2026-05-05 22:51 39.75629 -86.25425 2863 ft 203 kts 45°
2026-05-05 22:51 39.76622 -86.24019 3023 ft 220 kts 34°
2026-05-05 22:51 39.78058 -86.23338 3247 ft 232 kts
2026-05-05 22:52 39.79656 -86.23898 3542 ft 248 kts 328°
2026-05-05 22:52 39.81070 -86.25274 3964 ft 261 kts 320°
2026-05-05 22:52 39.82521 -86.26704 4637 ft 263 kts 321°
2026-05-05 22:52 39.84048 -86.28072 5067 ft 274 kts 323°
2026-05-05 22:53 39.85684 -86.29453 5658 ft 279 kts 323°
2026-05-05 22:53 39.87274 -86.30852 6334 ft 280 kts 320°
2026-05-05 22:53 39.88859 -86.32348 6941 ft 283 kts 319°
2026-05-05 22:53 39.90448 -86.33870 7613 ft 284 kts 318°
2026-05-05 22:54 39.92047 -86.35398 8303 ft 285 kts 318°
2026-05-05 22:54 39.93654 -86.36929 9024 ft 287 kts 318°
2026-05-05 22:54 39.95275 -86.38468 9718 ft 290 kts 318°
2026-05-05 22:54 39.96917 -86.40023 10337 ft 295 kts 317°
2026-05-05 22:55 39.98638 -86.41661 10529 ft 317 kts 319°
2026-05-05 22:55 40.00473 -86.43404 10809 ft 333 kts 319°
2026-05-05 22:55 40.02369 -86.45197 11366 ft 338 kts 319°
2026-05-05 22:55 40.04290 -86.47008 12026 ft 341 kts 319°
2026-05-05 22:56 40.06224 -86.48831 12702 ft 345 kts 319°
2026-05-05 22:56 40.08153 -86.50652 13369 ft 348 kts 319°
2026-05-05 22:56 40.10126 -86.52515 14093 ft 349 kts 318°
2026-05-05 22:56 40.12108 -86.54391 14665 ft 354 kts 318°
2026-05-05 22:57 40.14089 -86.56263 15563 ft 347 kts 317°
2026-05-05 22:57 40.16042 -86.58108 16417 ft 345 kts 317°
2026-05-05 22:57 40.17984 -86.59948 17180 ft 345 kts 316°
2026-05-05 22:57 40.19951 -86.61820 17640 ft 354 kts 316°
2026-05-05 22:58 40.21965 -86.63743 18118 ft 362 kts 317°
2026-05-05 22:58 40.24019 -86.65701 18594 ft 367 kts 317°
2026-05-05 22:58 40.26080 -86.67660 19259 ft 365 kts 317°
2026-05-05 22:58 40.28129 -86.69604 19990 ft 362 kts 316°
2026-05-05 22:59 40.30166 -86.71541 20707 ft 360 kts 316°
2026-05-05 22:59 40.32193 -86.73470 21362 ft 361 kts 316°
2026-05-05 22:59 40.34209 -86.75396 21958 ft 362 kts 316°
2026-05-05 22:59 40.36240 -86.77336 22529 ft 365 kts 316°
2026-05-05 23:00 40.40445 -86.81358 23235 ft 380 kts 316°
2026-05-05 23:00 40.42587 -86.83411 23777 ft 379 kts 316°
2026-05-05 23:00 40.44742 -86.85386 24421 ft 380 kts 320°
2026-05-05 23:01 40.47029 -86.87153 24933 ft 383 kts 322°
2026-05-05 23:01 40.49372 -86.88849 25358 ft 386 kts 323°
2026-05-05 23:01 40.51726 -86.90520 26058 ft 380 kts 323°
2026-05-05 23:01 40.54048 -86.92172 26656 ft 378 kts 322°
2026-05-05 23:02 40.56357 -86.93835 27205 ft 378 kts 322°
2026-05-05 23:02 40.58666 -86.95517 27594 ft 382 kts 322°
2026-05-05 23:02 40.60996 -86.97228 28003 ft 384 kts 322°
2026-05-05 23:02 40.63325 -86.98943 28446 ft 386 kts 321°
2026-05-05 23:03 40.65680 -87.00683 28813 ft 389 kts 321°
2026-05-05 23:03 40.68015 -87.02409 29308 ft 389 kts 321°
2026-05-05 23:03 40.70369 -87.04148 29827 ft 388 kts 321°
2026-05-05 23:03 40.72726 -87.05892 30237 ft 388 kts 321°
2026-05-05 23:04 40.75088 -87.07643 30600 ft 389 kts 321°
2026-05-05 23:04 40.77447 -87.09392 30981 ft 389 kts 321°
2026-05-05 23:04 40.79813 -87.11150 31270 ft 391 kts 320°
2026-05-05 23:04 40.82187 -87.12914 31614 ft 391 kts 320°
2026-05-05 23:05 40.84556 -87.14674 31894 ft 391 kts 320°
2026-05-05 23:05 40.86929 -87.16441 31875 ft 390 kts 320°
2026-05-05 23:05 40.91619 -87.19931 31906 ft 387 kts 320°
2026-05-05 23:06 40.96308 -87.23431 31896 ft 386 kts 319°
2026-05-05 23:06 41.00991 -87.26934 31898 ft 386 kts 319°
2026-05-05 23:07 41.05665 -87.30436 31899 ft 386 kts 319°
2026-05-05 23:07 41.10347 -87.33948 31930 ft 387 kts 318°
2026-05-05 23:08 41.15011 -87.37452 31903 ft 387 kts 318°
2026-05-05 23:08 41.19934 -87.40594 31900 ft 399 kts 325°
2026-05-05 23:09 41.25130 -87.43285 31883 ft 401 kts 326°
2026-05-05 23:09 41.30329 -87.45965 31887 ft 401 kts 326°
2026-05-05 23:10 41.35522 -87.48684 31891 ft 401 kts 325°
2026-05-05 23:10 41.40710 -87.51429 31882 ft 401 kts 324°
2026-05-05 23:11 41.45902 -87.54185 31885 ft 401 kts 324°
2026-05-05 23:11 41.51092 -87.56945 31881 ft 401 kts 324°
2026-05-05 23:12 41.56284 -87.59712 31904 ft 402 kts 324°
2026-05-05 23:12 41.61489 -87.62490 31895 ft 402 kts 324°
2026-05-05 23:13 41.66650 -87.65248 31873 ft 402 kts 324°
2026-05-05 23:13 41.71844 -87.68029 31870 ft 402 kts 324°
2026-05-05 23:14 41.77030 -87.70812 31902 ft 402 kts 324°
2026-05-05 23:14 41.82235 -87.73611 31879 ft 402 kts 324°
2026-05-05 23:15 41.87429 -87.76406 31866 ft 402 kts 324°
2026-05-05 23:15 41.92620 -87.79205 31870 ft 401 kts 324°
2026-05-05 23:16 41.97803 -87.82005 31904 ft 401 kts 324°
2026-05-05 23:16 42.02963 -87.84799 31882 ft 402 kts 324°
2026-05-05 23:17 42.08151 -87.87612 31880 ft 402 kts 324°
2026-05-05 23:17 42.13343 -87.90431 31876 ft 402 kts 324°
2026-05-05 23:18 42.17657 -87.92777 31883 ft 402 kts 324°
2026-05-05 23:18 42.22881 -87.95558 31867 ft 409 kts 329°
2026-05-05 23:19 42.28420 -87.97668 31866 ft 415 kts 332°
2026-05-05 23:19 42.34016 -87.99634 31867 ft 414 kts 332°
2026-05-05 23:20 42.39553 -88.01620 31904 ft 414 kts 332°
2026-05-05 23:20 42.45125 -88.03661 31879 ft 415 kts 332°
2026-05-05 23:21 42.50695 -88.05717 31868 ft 415 kts 332°
2026-05-05 23:21 42.56267 -88.07779 31867 ft 415 kts 332°
2026-05-05 23:22 42.61838 -88.09844 31897 ft 415 kts 331°
2026-05-05 23:22 42.67420 -88.11918 31880 ft 416 kts 331°
2026-05-05 23:23 42.73009 -88.13998 31873 ft 416 kts 331°
2026-05-05 23:23 42.78598 -88.16081 31870 ft 416 kts 331°
2026-05-05 23:24 42.84195 -88.18170 31866 ft 416 kts 331°
2026-05-05 23:24 42.89780 -88.20260 31872 ft 417 kts 331°
2026-05-05 23:25 42.95344 -88.22346 31870 ft 417 kts 331°
2026-05-05 23:25 43.00956 -88.24453 31911 ft 417 kts 331°
2026-05-05 23:26 43.06521 -88.26547 31879 ft 418 kts 331°
2026-05-05 23:26 43.11766 -88.29355 31889 ft 385 kts 312°
2026-05-05 23:27 43.13711 -88.31748 31874 ft 370 kts 300°
2026-05-05 23:27 43.15351 -88.34467 31869 ft 371 kts 299°
2026-05-05 23:27 43.18555 -88.40021 31865 ft 372 kts 298°
2026-05-05 23:28 43.21763 -88.45586 31866 ft 372 kts 299°
2026-05-05 23:28 43.24993 -88.51145 31875 ft 373 kts 299°
2026-05-05 23:29 43.28225 -88.56689 31866 ft 371 kts 299°
2026-05-05 23:29 43.31426 -88.62182 31880 ft 369 kts 299°
2026-05-05 23:30 43.34603 -88.67643 31888 ft 367 kts 299°
2026-05-05 23:30 43.37784 -88.73121 31889 ft 365 kts 299°
2026-05-05 23:31 43.40952 -88.78590 31886 ft 364 kts 299°
2026-05-05 23:31 43.44105 -88.84044 31902 ft 365 kts 299°
2026-05-05 23:32 43.47263 -88.89515 31892 ft 364 kts 298°
2026-05-05 23:32 43.50392 -88.94946 31886 ft 364 kts 298°
2026-05-05 23:33 43.53537 -89.00414 31882 ft 364 kts 298°
2026-05-05 23:33 43.56686 -89.05899 31883 ft 364 kts 298°
2026-05-05 23:34 43.59835 -89.11396 31882 ft 365 kts 298°
2026-05-05 23:34 43.62985 -89.16905 31922 ft 366 kts 298°
2026-05-05 23:35 43.66138 -89.22430 31895 ft 367 kts 298°
2026-05-05 23:35 43.69276 -89.27937 31886 ft 367 kts 298°
2026-05-05 23:36 43.72434 -89.33490 31885 ft 367 kts 298°
2026-05-05 23:36 43.75590 -89.39049 31896 ft 367 kts 298°
2026-05-05 23:37 43.78745 -89.44618 31891 ft 367 kts 298°
2026-05-05 23:37 43.81893 -89.50189 31892 ft 367 kts 298°
2026-05-05 23:38 43.85037 -89.55762 31899 ft 367 kts 297°
2026-05-05 23:38 43.88174 -89.61333 31894 ft 367 kts 297°
2026-05-05 23:39 43.91310 -89.66913 31894 ft 366 kts 297°
2026-05-05 23:39 43.94440 -89.72494 31892 ft 366 kts 297°
2026-05-05 23:40 43.97539 -89.78032 31894 ft 365 kts 297°
2026-05-05 23:40 44.00655 -89.83609 31896 ft 365 kts 297°
2026-05-05 23:41 44.03762 -89.89183 31942 ft 365 kts 297°
2026-05-05 23:41 44.06872 -89.94769 31918 ft 365 kts 297°
2026-05-05 23:42 44.10037 -90.00303 31885 ft 366 kts 298°
2026-05-05 23:42 44.13264 -90.05767 31889 ft 365 kts 298°
2026-05-05 23:43 44.16472 -90.11223 31899 ft 363 kts 298°
2026-05-05 23:43 44.19662 -90.16677 31899 ft 363 kts 298°
2026-05-05 23:44 44.22824 -90.22103 31954 ft 362 kts 298°
2026-05-05 23:44 44.26004 -90.27571 31921 ft 362 kts 298°
2026-05-05 23:45 44.29178 -90.33039 31913 ft 362 kts 298°
2026-05-05 23:45 44.32339 -90.38493 31928 ft 361 kts 297°
2026-05-05 23:46 44.35252 -90.44119 31910 ft 346 kts 286°
2026-05-05 23:46 44.37051 -90.50296 31924 ft 343 kts 284°
2026-05-05 23:47 44.38861 -90.56499 31925 ft 346 kts 284°
2026-05-05 23:47 44.40700 -90.62735 31920 ft 348 kts 284°
2026-05-05 23:48 44.42538 -90.68965 31968 ft 350 kts 284°
2026-05-05 23:48 44.44405 -90.75281 31924 ft 352 kts 284°
2026-05-05 23:49 44.46274 -90.81600 31908 ft 343 kts 284°
2026-05-05 23:49 44.47170 -90.84616 31906 ft 328 kts 284°
2026-05-05 23:49 44.48036 -90.87540 31595 ft 320 kts 284°
2026-05-05 23:50 44.48874 -90.90387 31194 ft 314 kts 283°
2026-05-05 23:50 44.49684 -90.93149 30799 ft 309 kts 283°
2026-05-05 23:50 44.50494 -90.95921 30380 ft 305 kts 283°
2026-05-05 23:50 44.51293 -90.98654 29938 ft 302 kts 283°
2026-05-05 23:51 44.52084 -91.01367 29437 ft 298 kts 283°
2026-05-05 23:51 44.52863 -91.04034 29004 ft 293 kts 283°
2026-05-05 23:51 44.53630 -91.06664 28582 ft 289 kts 283°
2026-05-05 23:51 44.54385 -91.09253 28164 ft 284 kts 283°
2026-05-05 23:52 44.55127 -91.11803 27732 ft 281 kts 283°
2026-05-05 23:52 44.55859 -91.14318 27330 ft 277 kts 283°
2026-05-05 23:52 44.56582 -91.16806 26949 ft 274 kts 283°
2026-05-05 23:52 44.57295 -91.19268 26548 ft 270 kts 283°
2026-05-05 23:53 44.57992 -91.21675 26145 ft 268 kts 283°
2026-05-05 23:53 44.58690 -91.24086 25751 ft 265 kts 283°
2026-05-05 23:53 44.59381 -91.26472 25374 ft 263 kts 284°
2026-05-05 23:53 44.60068 -91.28849 24980 ft 263 kts 284°
2026-05-05 23:54 44.60758 -91.31243 24587 ft 267 kts 284°
2026-05-05 23:54 44.61464 -91.33701 24193 ft 277 kts 284°
2026-05-05 23:54 44.62193 -91.36232 23806 ft 279 kts 285°
2026-05-05 23:54 44.62922 -91.38752 23442 ft 278 kts 285°
2026-05-05 23:55 44.63649 -91.41262 23048 ft 278 kts 285°
2026-05-05 23:55 44.64377 -91.43787 22686 ft 281 kts 285°
2026-05-05 23:55 44.65116 -91.46353 22344 ft 285 kts 286°
2026-05-05 23:55 44.65864 -91.48956 21988 ft 289 kts 286°
2026-05-05 23:56 44.66619 -91.51582 21645 ft 292 kts 287°
2026-05-05 23:56 44.67383 -91.54240 21301 ft 295 kts 287°
2026-05-05 23:56 44.68155 -91.56931 20941 ft 299 kts 287°
2026-05-05 23:56 44.68928 -91.59623 20585 ft 302 kts 288°
2026-05-05 23:57 44.69715 -91.62371 20221 ft 303 kts 288°
2026-05-05 23:57 44.70501 -91.65115 19856 ft 302 kts 288°
2026-05-05 23:57 44.71285 -91.67856 19496 ft 302 kts 289°
2026-05-05 23:57 44.72069 -91.70602 19144 ft 302 kts 289°
2026-05-05 23:58 44.72852 -91.73349 18786 ft 303 kts 289°
2026-05-05 23:58 44.73637 -91.76105 18427 ft 305 kts 290°
2026-05-05 23:58 44.74428 -91.78883 18038 ft 307 kts 290°
2026-05-05 23:58 44.75222 -91.81678 17630 ft 308 kts 290°
2026-05-05 23:59 44.76020 -91.84487 17245 ft 309 kts 290°
2026-05-05 23:59 44.76816 -91.87296 16864 ft 309 kts 290°
2026-05-05 23:59 44.77596 -91.90114 16498 ft 307 kts 290°
2026-05-05 23:59 44.78355 -91.92906 16131 ft 304 kts 290°
2026-05-06 00:00 44.79104 -91.95674 15766 ft 301 kts 290°
2026-05-06 00:00 44.79843 -91.98407 15412 ft 297 kts 290°
2026-05-06 00:00 44.80575 -92.01112 15063 ft 294 kts 290°
2026-05-06 00:00 44.81301 -92.03798 14718 ft 291 kts 290°
2026-05-06 00:01 44.82010 -92.06420 14432 ft 287 kts 290°
2026-05-06 00:01 44.82719 -92.09041 14095 ft 285 kts 290°
2026-05-06 00:01 44.83421 -92.11640 13764 ft 283 kts 290°
2026-05-06 00:01 44.84121 -92.14234 13394 ft 282 kts 290°
2026-05-06 00:02 44.84816 -92.16814 13040 ft 281 kts 290°
2026-05-06 00:02 44.85398 -92.19426 12696 ft 279 kts 279°
2026-05-06 00:02 44.85594 -92.22129 12382 ft 277 kts 275°
2026-05-06 00:02 44.85720 -92.24846 12038 ft 278 kts 274°
2026-05-06 00:03 44.85858 -92.27578 11698 ft 279 kts 275°
2026-05-06 00:03 44.86012 -92.30310 11354 ft 279 kts 275°
2026-05-06 00:03 44.86117 -92.32115 11136 ft 279 kts 275°
2026-05-06 00:03 44.86258 -92.34847 10808 ft 280 kts 275°
2026-05-06 00:04 44.86389 -92.37578 10462 ft 278 kts 275°
2026-05-06 00:04 44.86518 -92.40284 10131 ft 275 kts 275°
2026-05-06 00:04 44.86646 -92.42953 9933 ft 268 kts 275°
2026-05-06 00:04 44.86769 -92.45501 9929 ft 254 kts 275°
2026-05-06 00:05 44.86382 -92.50253 9311 ft 245 kts 249°
2026-05-06 00:05 44.85626 -92.52384 8916 ft 241 kts 245°
2026-05-06 00:05 44.84844 -92.54458 8518 ft 238 kts 245°
2026-05-06 00:06 44.84071 -92.56528 8116 ft 238 kts 246°
2026-05-06 00:06 44.83303 -92.58602 7723 ft 238 kts 246°
2026-05-06 00:06 44.82538 -92.60678 7324 ft 238 kts 246°
2026-05-06 00:06 44.81788 -92.62720 6946 ft 238 kts 246°
2026-05-06 00:07 44.81036 -92.64767 6561 ft 233 kts 246°
2026-05-06 00:07 44.80299 -92.66773 6163 ft 229 kts 246°
2026-05-06 00:07 44.79574 -92.68747 5756 ft 226 kts 246°
2026-05-06 00:07 44.78855 -92.70703 5353 ft 224 kts 247°
2026-05-06 00:08 44.78150 -92.72616 5180 ft 213 kts 246°
2026-05-06 00:08 44.77472 -92.74454 5122 ft 214 kts 247°
2026-05-06 00:08 44.76975 -92.76454 5075 ft 219 kts 267°
2026-05-06 00:08 44.76887 -92.78604 5051 ft 221 kts 269°
2026-05-06 00:09 44.76787 -92.80763 5002 ft 220 kts 269°
2026-05-06 00:09 44.76679 -92.82910 4905 ft 220 kts 269°
2026-05-06 00:09 44.76567 -92.85054 4822 ft 220 kts 269°
2026-05-06 00:09 44.76453 -92.87189 4741 ft 215 kts 269°
2026-05-06 00:10 44.76341 -92.89244 4647 ft 207 kts 269°
2026-05-06 00:10 44.76232 -92.91245 4559 ft 204 kts 269°
2026-05-06 00:10 44.76130 -92.93223 4488 ft 206 kts 271°
2026-05-06 00:10 44.76508 -92.95123 4385 ft 203 kts 305°
2026-05-06 00:11 44.77304 -92.96691 4315 ft 193 kts 301°
2026-05-06 00:11 44.77960 -92.98288 4226 ft 184 kts 301°
2026-05-06 00:11 44.78618 -92.99815 4166 ft 181 kts 302°
2026-05-06 00:11 44.79278 -93.01340 3949 ft 183 kts 302°
2026-05-06 00:12 44.79926 -93.02846 3696 ft 176 kts 302°
2026-05-06 00:12 44.80536 -93.04267 3473 ft 164 kts 302°
2026-05-06 00:12 44.81116 -93.05618 3256 ft 159 kts 302°
2026-05-06 00:12 44.81663 -93.06890 3029 ft 147 kts 302°
2026-05-06 00:13 44.82165 -93.08059 2847 ft 134 kts 302°
2026-05-06 00:13 44.82641 -93.09166 2691 ft 131 kts 302°
2026-05-06 00:13 44.83110 -93.10256 2495 ft 129 kts 302°
2026-05-06 00:13 44.83578 -93.11340 2315 ft 132 kts 302°
2026-05-06 00:14 44.84048 -93.12434 2128 ft 128 kts 303°
2026-05-06 00:14 44.84506 -93.13501 1964 ft 128 kts 302°
2026-05-06 00:14 44.84976 -93.14590 1775 ft 131 kts 302°
2026-05-06 00:14 44.85449 -93.15686 1574 ft 131 kts 302°
2026-05-06 00:15 44.85922 -93.16797 1414 ft 133 kts 301°
2026-05-06 00:15 44.86416 -93.17917 1210 ft 135 kts 306°
2026-05-06 00:15 44.86885 -93.19021 1057 ft 129 kts 300°
2026-05-06 00:15 44.87335 -93.20097 883 ft 131 kts 304°
2026-05-06 00:16 44.87803 -93.21162 826 ft 112 kts 301°
2026-05-06 00:16 44.88089 -93.21819 822 ft 33 kts 301°
2026-05-06 00:16 44.88189 -93.22004 824 ft 12 kts 340°
2026-05-06 00:16 44.88242 -93.21999 824 ft 6 kts 19°
2026-05-06 00:17 44.88269 -93.21958 824 ft 6 kts 79°
2026-05-06 00:17 44.88247 -93.21890 824 ft 10 kts 120°
2026-05-06 00:17 44.88204 -93.21790 824 ft 13 kts 122°
2026-05-06 00:17 44.88159 -93.21685 821 ft 11 kts 121°
2026-05-06 00:18 44.88115 -93.21585 824 ft 12 kts 121°
2026-05-06 00:18 44.88091 -93.21529 823 ft 0 kts 121°
2026-05-06 00:18 44.88089 -93.21525 824 ft 2 kts 121°
2026-05-06 00:18 44.88075 -93.21492 820 ft 5 kts 121°
2026-05-06 00:19 44.88051 -93.21436 823 ft 8 kts 121°
2026-05-06 00:19 44.88044 -93.21360 824 ft 7 kts 90°
2026-05-06 00:19 44.88034 -93.21285 824 ft 9 kts 102°
2026-05-06 00:19 44.88033 -93.21210 824 ft 9 kts 77°
2026-05-06 00:20 44.88067 -93.21158 821 ft 5 kts 35°
2026-05-06 00:20 44.88090 -93.21134 824 ft 0 kts 37°